This demonstration page uses our WeatherBlox Daily Observations layout. Learn more.

Left ArrowRight Arrow

Hourly Observations for March 12, 2020

Temp ( °F °C ) Dew Point ( °F °C ) Humidity (%) Winds ( mph kmh ) Pressure ( in mb ) Visibility ( mi km ) Precip ( " mm )
12:56 am 00:56 Clear 49 9.5 44 6.8 83 83 SSE 8 13 29.72 1007 10 16 0.00 0.00
1:56 am 01:56 Clear 48 8.8 44 6.6 86 86 SSE 6 9 29.70 1006 10 16 0.00 0.00
2:56 am 02:56 Partly Cloudy 53 11.9 43 6.2 68 68 S 9 15 29.67 1005 10 16 0.00 0.00
3:56 am 03:56 Cloudy 50 9.9 44 6.4 79 79 S 6 9 29.65 1004 10 16 0.00 0.00
4:56 am 04:56 Mostly Cloudy 55 12.6 44 6.8 68 68 S 8 13 29.63 1004 10 16 0.00 0.00
5:56 am 05:56 Mostly Cloudy with Light Rain 57 14 46 7.7 66 66 SW 9 15 29.65 1004 10 16 0.00 0.00
6:56 am 06:56 Cloudy with Rain 54 12.4 50 9.8 84 84 S 16 26 29.62 1003 10 16 0.02 0.51
6:58 am 06:58 Cloudy with Light Rain 55 13 50 10 82 82 S 22 35 29.60 1002 6 10 0.02 0.51
7:04 am 07:04 Cloudy with Light Rain 54 12 50 10 88 88 S 17 28 29.62 1003 10 16 0.00 0.00
7:56 am 07:56 Cloudy 53 11.4 49 9.5 88 88 SSE 14 22 29.57 1001 10 16 0.01 0.25
7:57 am 07:57 Mostly Cloudy 52 11 50 10 94 94 SSE 15 24 29.57 1001 10 16 0.01 0.25
8:56 am 08:56 Partly Cloudy 55 13 48 9 77 77 S 12 19 29.60 1003 10 16 0.00 0.00
9:56 am 09:56 Mostly Sunny 58 14.7 52 10.9 78 78 WSW 7 11 29.63 1003 10 16 0.00 0.00
10:56 am 10:56 Mostly Sunny 55 13 41 5.2 59 59 WNW 22 35 29.68 1005 10 16 0.00 0.00
11:56 am 11:56 Mostly Sunny 54 12.2 43 6.3 67 67 NW 15 24 29.73 1007 10 16 0.00 0.00
12:56 pm 12:56 Sunny 58 14.3 41 5.1 54 54 NW 20 31 29.73 1007 10 16 0.00 0.00
1:56 pm 13:56 Mostly Cloudy 59 14.8 39 3.9 48 48 NNW 16 26 29.78 1008 10 16 0.00 0.00
2:56 pm 14:56 Cloudy 57 13.9 40 4.2 52 52 NNW 17 28 29.79 1009 10 16 0.00 0.00
3:56 pm 15:56 Cloudy 53 11.5 39 3.8 59 59 NW 21 33 29.86 1011 10 16 0.00 0.00
4:56 pm 16:56 Mostly Cloudy 53 11.4 35 1.6 51 51 NNW 20 31 29.90 1012 10 16 0.00 0.00
5:56 pm 17:56 Sunny 52 11 31 -0.5 45 45 NNW 23 37 29.93 1013 10 16 0.00 0.00
6:56 pm 18:56 Sunny 49 9.6 26 -3.3 40 40 NNW 21 33 29.96 1015 10 16 0.00 0.00
7:56 pm 19:56 Clear 46 7.7 27 -2.6 48 48 NNW 14 22 30.03 1017 10 16 0.00 0.00
8:56 pm 20:56 Clear 45 7 26 -3.3 48 48 NNW 12 19 30.07 1018 10 16 0.00 0.00
9:56 pm 21:56 Clear 43 5.9 25 -3.7 51 51 NNW 10 17 30.10 1019 10 16 0.00 0.00
10:56 pm 22:56 Clear 40 4.7 24 -4.3 52 52 NNW 9 15 30.13 1020 10 16 0.00 0.00
11:56 pm 23:56 Clear 38 3.5 24 -4.5 56 56 NW 7 11 30.16 1022 10 16 0.00 0.00

Powered by AerisWeather